| time (UTC) | temp F | wind direction | speed MPH | gust MPH | rain 1hr in | rain 24hr in | rain mn in | humidity % | barometer mb |
| 20260902231540 | 88 | 206 | 0.0 | 5.0 | 0.00 | 0.00 | 0.00 | 70 | 1016.6 |
| 20260902230037 | 88 | 218 | 1.0 | 4.0 | 0.00 | 0.00 | 0.00 | 69 | 1016.6 |
| 20260902224535 | 90 | 228 | 1.0 | 8.0 | 0.00 | 0.00 | 0.00 | 67 | 1016.7 |
| 20260902223034 | 90 | 235 | 3.0 | 7.0 | 0.00 | 0.00 | 0.00 | 66 | 1016.7 |
| 20260902221556 | 91 | 219 | 2.0 | 8.0 | 0.00 | 0.00 | 0.00 | 65 | 1017.0 |
| 20260902220037 | 91 | 194 | 2.0 | 7.0 | 0.00 | 0.00 | 0.00 | 64 | 1017.0 |
| 20260902214538 | 92 | 223 | 1.0 | 11.0 | 0.00 | 0.00 | 0.00 | 64 | 1016.9 |
| 20260902213036 | 92 | 232 | 2.0 | 10.0 | 0.00 | 0.00 | 0.00 | 63 | 1017.0 |
| 20260902211538 | 93 | 214 | 3.0 | 11.0 | 0.00 | 0.00 | 0.00 | 60 | 1017.0 |
| 20260902210037 | 93 | 215 | 4.0 | 10.0 | 0.00 | 0.00 | 0.00 | 61 | 1017.2 |
| 20260902204548 | 93 | 235 | 3.0 | 10.0 | 0.00 | 0.00 | 0.00 | 61 | 1017.1 |
| 20260902203035 | 93 | 211 | 4.0 | 12.0 | 0.00 | 0.00 | 0.00 | 61 | 1017.3 |
| 20260902201541 | 93 | 238 | 5.0 | 9.0 | 0.00 | 0.00 | 0.00 | 58 | 1017.3 |
| 20260902200038 | 93 | 242 | 3.0 | 10.0 | 0.00 | 0.00 | 0.00 | 60 | 1017.5 |
| 20260902194551 | 93 | 240 | 1.0 | 12.0 | 0.00 | 0.00 | 0.00 | 60 | 1017.7 |
| 20260902193042 | 92 | 0 | 2.0 | 13.0 | 0.00 | 0.00 | 0.00 | 60 | 1017.7 |
| 20260902191549 | 93 | 296 | 2.0 | 10.0 | 0.00 | 0.00 | 0.00 | 59 | 1017.8 |
| 20260902190039 | 93 | 225 | 2.0 | 10.0 | 0.00 | 0.00 | 0.00 | 60 | 1018.0 |
| 20260902184534 | 92 | 214 | 2.0 | 11.0 | 0.00 | 0.00 | 0.00 | 63 | 1018.1 |
| 20260902183041 | 93 | 239 | 3.0 | 10.0 | 0.00 | 0.00 | 0.00 | 60 | 1018.1 |
| 20260902181536 | 92 | 205 | 3.0 | 8.0 | 0.00 | 0.00 | 0.00 | 63 | 1018.4 |
| 20260902180036 | 93 | 236 | 4.0 | 10.0 | 0.00 | 0.00 | 0.00 | 61 | 1018.4 |
| 20260902174538 | 93 | 0 | 3.0 | 8.0 | 0.00 | 0.00 | 0.00 | 61 | 1018.5 |
| 20260902173051 | 92 | 0 | 2.0 | 10.0 | 0.00 | 0.00 | 0.00 | 60 | 1018.8 |
| 20260902171537 | 92 | 206 | 5.0 | 11.0 | 0.00 | 0.00 | 0.00 | 59 | 1018.9 |
| 20260902170043 | 92 | 198 | 3.0 | 9.0 | 0.00 | 0.00 | 0.00 | 64 | 1018.8 |
| 20260902164545 | 91 | 241 | 3.0 | 12.0 | 0.00 | 0.00 | 0.00 | 64 | 1018.9 |
| 20260902163036 | 92 | 0 | 0.0 | 11.0 | 0.00 | 0.00 | 0.00 | 66 | 1019.0 |
| 20260902161538 | 90 | 252 | 4.0 | 12.0 | 0.00 | 0.00 | 0.00 | 65 | 1019.1 |
| 20260902160045 | 90 | 250 | 1.0 | 8.0 | 0.00 | 0.00 | 0.00 | 66 | 1019.1 |
| 20260902154546 | 90 | 240 | 2.0 | 9.0 | 0.00 | 0.00 | 0.00 | 65 | 1019.2 |
| 20260902153035 | 89 | 214 | 2.0 | 7.0 | 0.00 | 0.00 | 0.00 | 66 | 1019.3 |
| 20260902151538 | 89 | 269 | 1.0 | 8.0 | 0.00 | 0.00 | 0.00 | 70 | 1019.4 |
| 20260902150035 | 88 | 0 | 0.0 | 5.0 | 0.00 | 0.00 | 0.00 | 72 | 1019.3 |
| 20260902144537 | 86 | 196 | 3.0 | 5.0 | 0.00 | 0.00 | 0.00 | 73 | 1019.4 |
| 20260902143038 | 85 | 0 | 0.0 | 7.0 | 0.00 | 0.00 | 0.00 | 75 | 1019.2 |
| 20260902141538 | 85 | 209 | 0.0 | 2.0 | 0.00 | 0.00 | 0.00 | 76 | 1019.3 |
| 20260902140039 | 83 | 211 | 0.0 | 4.0 | 0.00 | 0.00 | 0.00 | 79 | 1019.4 |
| 20260902134539 | 81 | 205 | 0.0 | 3.0 | 0.00 | 0.00 | 0.00 | 83 | 1019.5 |
| 20260902133037 | 79 | 0 | 0.0 | 2.0 | 0.00 | 0.00 | 0.00 | 85 | 1019.4 |
| 20260902131547 | 78 | 207 | 0.0 | 2.0 | 0.00 | 0.00 | 0.00 | 88 | 1019.4 |
| 20260902130049 | 76 | 0 | 0.0 | 3.0 | 0.00 | 0.00 | 0.00 | 88 | 1019.4 |
| 20260902124537 | 75 | 0 | 0.0 | 2.0 | 0.00 | 0.00 | 0.00 | 91 | 1019.3 |
| 20260902123038 | 74 | 0 | 0.0 | 1.0 | 0.00 | 0.00 | 0.00 | 92 | 1019.2 |
| 20260902121541 | 73 | 0 | 0.0 | 1.0 | 0.00 | 0.00 | 0.00 | 94 | 1019.1 |
| 20260902120037 | 72 | 0 | 0.0 | 1.0 | 0.00 | 0.00 | 0.00 | 95 | 1018.8 |
| 20260902114536 | 71 | 0 | 0.0 | 0.0 | 0.00 | 0.00 | 0.00 | 95 | 1018.7 |
| 20260902113035 | 70 | 0 | 0.0 | 0.0 | 0.00 | 0.00 | 0.00 | 95 | 1018.6 |
| 20260902111540 | 70 | 0 | 0.0 | 0.0 | 0.00 | 0.00 | 0.00 | 95 | 1018.6 |
| 20260902110043 | 70 | 0 | 0.0 | 1.0 | 0.00 | 0.00 | 0.00 | 94 | 1018.4 |
| 20260902104540 | 70 | 0 | 0.0 | 0.0 | 0.00 | 0.00 | 0.00 | 94 | 1018.4 |
| 20260902103039 | 70 | 0 | 0.0 | 0.0 | 0.00 | 0.00 | 0.00 | 94 | 1018.4 |
| 20260902101536 | 71 | 0 | 0.0 | 0.0 | 0.00 | 0.00 | 0.00 | 94 | 1018.4 |
| 20260902100035 | 71 | 0 | 0.0 | 1.0 | 0.00 | 0.00 | 0.00 | 94 | 1018.4 |
| 20260902094535 | 71 | 0 | 0.0 | 0.0 | 0.00 | 0.00 | 0.00 | 94 | 1018.3 |
| 20260902093041 | 71 | 0 | 0.0 | 0.0 | 0.00 | 0.00 | 0.00 | 94 | 1018.3 |
| 20260902091535 | 71 | 0 | 0.0 | 1.0 | 0.00 | 0.00 | 0.00 | 94 | 1018.2 |
| 20260902090035 | 71 | 0 | 0.0 | 1.0 | 0.00 | 0.00 | 0.00 | 94 | 1018.1 |
| 20260902084536 | 71 | 0 | 0.0 | 1.0 | 0.00 | 0.00 | 0.00 | 94 | 1018.1 |
| 20260902083038 | 72 | 0 | 0.0 | 1.0 | 0.00 | 0.00 | 0.00 | 93 | 1017.8 |
| 20260902081543 | 71 | 0 | 0.0 | 0.0 | 0.00 | 0.00 | 0.00 | 93 | 1017.7 |
| 20260902080047 | 72 | 0 | 0.0 | 1.0 | 0.00 | 0.00 | 0.00 | 93 | 1017.6 |
| 20260902074537 | 72 | 0 | 0.0 | 0.0 | 0.00 | 0.00 | 0.00 | 93 | 1017.5 |
| 20260902073039 | 72 | 0 | 0.0 | 0.0 | 0.00 | 0.00 | 0.00 | 93 | 1017.6 |
| 20260902071540 | 72 | 0 | 0.0 | 0.0 | 0.00 | 0.00 | 0.00 | 92 | 1017.7 |
| 20260902070038 | 72 | 0 | 0.0 | 0.0 | 0.00 | 0.00 | 0.00 | 92 | 1017.6 |
| 20260902064535 | 72 | 0 | 0.0 | 0.0 | 0.00 | 0.00 | 0.00 | 92 | 1017.6 |
| 20260902063036 | 73 | 0 | 0.0 | 0.0 | 0.00 | 0.00 | 0.00 | 92 | 1017.8 |
| 20260902061536 | 73 | 0 | 0.0 | 0.0 | 0.00 | 0.00 | 0.00 | 92 | 1017.7 |
| 20260902060037 | 73 | 0 | 0.0 | 0.0 | 0.00 | 0.00 | 0.00 | 91 | 1017.7 |
| 20260902054538 | 73 | 0 | 0.0 | 0.0 | 0.00 | 0.00 | 0.00 | 91 | 1017.7 |
| 20260902053038 | 73 | 0 | 0.0 | 0.0 | 0.00 | 0.00 | 0.00 | 91 | 1017.7 |
| 20260902051536 | 74 | 0 | 0.0 | 0.0 | 0.00 | 0.00 | 0.00 | 91 | 1017.7 |
| 20260902050035 | 74 | 0 | 0.0 | 0.0 | 0.00 | 0.00 | 0.00 | 91 | 1017.7 |
| 20260902044539 | 74 | 0 | 0.0 | 0.0 | 0.00 | 0.00 | 0.00 | 91 | 1017.7 |
| 20260902043042 | 74 | 0 | 0.0 | 0.0 | 0.00 | 0.00 | 0.00 | 90 | 1017.8 |
| 20260902041535 | 75 | 0 | 0.0 | 1.0 | 0.00 | 0.00 | 0.00 | 90 | 1017.8 |
| 20260902040037 | 75 | 0 | 0.0 | 1.0 | 0.00 | 0.00 | 0.00 | 90 | 1017.7 |
| 20260902034541 | 75 | 0 | 0.0 | 1.0 | 0.00 | 0.00 | 0.00 | 90 | 1017.8 |
| 20260902033041 | 75 | 0 | 0.0 | 1.0 | 0.00 | 0.00 | 0.00 | 90 | 1017.8 |
| 20260902031538 | 75 | 0 | 0.0 | 0.0 | 0.00 | 0.00 | 0.00 | 89 | 1017.7 |
| 20260902030042 | 76 | 0 | 0.0 | 0.0 | 0.00 | 0.00 | 0.00 | 88 | 1017.7 |
| 20260902024534 | 76 | 0 | 0.0 | 1.0 | 0.00 | 0.00 | 0.00 | 89 | 1017.7 |
| 20260902023042 | 76 | 0 | 0.0 | 2.0 | 0.00 | 0.00 | 0.00 | 88 | 1017.7 |
| 20260902021546 | 77 | 0 | 0.0 | 3.0 | 0.00 | 0.00 | 0.00 | 87 | 1017.6 |
| 20260902020036 | 77 | 0 | 0.0 | 1.0 | 0.00 | 0.00 | 0.00 | 86 | 1017.7 |
| 20260902014542 | 77 | 0 | 0.0 | 1.0 | 0.00 | 0.00 | 0.00 | 86 | 1017.7 |
| 20260902013038 | 78 | 0 | 0.0 | 1.0 | 0.00 | 0.00 | 0.00 | 85 | 1017.7 |
| 20260902011538 | 78 | 0 | 0.0 | 2.0 | 0.00 | 0.00 | 0.00 | 85 | 1017.6 |
| 20260902010035 | 79 | 0 | 0.0 | 1.0 | 0.00 | 0.00 | 0.00 | 83 | 1017.4 |
| 20260902004540 | 79 | 0 | 0.0 | 1.0 | 0.00 | 0.00 | 0.00 | 82 | 1017.3 |
| 20260902003042 | 80 | 208 | 0.0 | 2.0 | 0.00 | 0.00 | 0.00 | 81 | 1017.3 |
| 20260902001534 | 81 | 0 | 0.0 | 1.0 | 0.00 | 0.00 | 0.00 | 82 | 1017.4 |
| 20260902000037 | 82 | 0 | 0.0 | 1.0 | 0.00 | 0.00 | 0.00 | 79 | 1017.5 |
| 20260901234537 | 83 | 0 | 0.0 | 0.0 | 0.00 | 0.00 | 0.00 | 79 | 1017.4 |
| 20260901233037 | 85 | 0 | 0.0 | 2.0 | 0.00 | 0.00 | 0.00 | 74 | 1017.5 |